Location: Caltech
(34.1382°N, 118.1253°W)
Time: 17:05:38
(UTC-07:00)

Cosmos 1606 - Visible Passes

Search period start: 07 July 2015 00:00
Search period end: 17 July 2015 00:00
Orbit: 513 x 538 km, 82.5° (Epoch: 07 July)

Date Brightness Start Highest point End Pass type
(mag) Time Alt. Az. Time Alt. Az. Time Alt. Az.
07 Jul 5.3 23:24:17 10° NNE 23:25:11 15° NNE 23:25:11 15° NNE visible
08 Jul 5.3 23:12:30 10° NNE 23:13:21 14° NE 23:13:21 14° NE visible
09 Jul 5.3 23:00:45 10° NNE 23:01:31 13° NE 23:01:31 13° NE visible
10 Jul 5.8 00:36:29 10° NW 00:36:44 11° NW 00:36:44 11° NW visible
10 Jul 5.3 22:49:01 10° NNE 22:49:42 13° NE 22:49:42 13° NE visible
11 Jul 5.7 00:24:23 10° NW 00:24:55 13° NW 00:24:55 13° NW visible
11 Jul 5.3 22:37:19 10° NE 22:37:53 12° NE 22:37:53 12° NE visible
12 Jul 5.6 00:12:19 10° NW 00:13:06 14° NW 00:13:06 14° NW visible
12 Jul 5.3 22:25:41 10° NE 22:26:05 11° NE 22:26:05 11° NE visible
13 Jul 5.5 00:00:15 10° NNW 00:01:18 16° NW 00:01:18 16° NW visible
13 Jul 5.3 22:14:09 10° NE 22:14:17 10° NE 22:14:17 10° NE visible
13 Jul 5.3 23:48:12 10° NNW 23:49:30 18° NW 23:49:30 18° NW visible
14 Jul 5.1 23:36:10 10° NNW 23:37:42 21° NW 23:37:42 21° NW visible
15 Jul 4.9 23:24:08 10° NNW 23:25:55 24° NW 23:25:55 24° NW visible
16 Jul 4.7 23:12:07 10° NNW 23:14:09 28° NW 23:14:09 28° NW visible
